Regional Weather Roundup
Issued by NWS Green Bay, WI

Home | Current Version | Previous Version | Graphics & Text | Print | Product List | Glossary Off
Versions: 1 2 3 4 5 6 7 8 9 10 11 12 13 14 15 16 17 18 19 20 21 22 23 24 25 26 27 28 29 30 31 32 33 34 35 36 37 38 39 40 41 42 43 44 45 46 47 48 49 50

000
ASUS43 KGRB 180211
RWRGRB

NORTH-CENTRAL AND NORTHEAST WISCONSIN REGIONAL WEATHER ROUNDUP
NATIONAL WEATHER SERVICE GREEN BAY WI
800 PM CST SUN DEC 17 2017

WIZ005-009-010>012-018-019-180300-
NORTH CENTRAL WISCONSIN

CITY           SKY/WX    TMP DP  RH WIND       PRES   REMARKS
IRONWOOD       CLOUDY    24  22  91 SW3       29.93F
MANITOWISH WTR CLOUDY    24  24 100 S5        29.92S
ARBOR VITAE    CLOUDY    27  26  96 SW6       29.93S FOG
EAGLE RIVER    CLOUDY    25  25 100 CALM      29.93R FOG
LAND O LAKES   CLOUDY    26  25  97 CALM      29.93S
RHINELANDER    CLOUDY    26  26 100 SW5       29.94R FOG
PHILLIPS       CLOUDY    25  25 100 SW3       29.93S
ANTIGO         CLOUDY    25  25 100 SW3       29.95S FOG
TOMAHAWK       CLOUDY    26  24  96 CALM      29.95R FOG
MERRILL        CLOUDY    27  26  96 S3        29.96S FOG
$$

WIZ013-073-180300-
NORTHEAST WISCONSIN

CITY           SKY/WX    TMP DP  RH WIND       PRES   REMARKS
IRON MOUNTAIN  CLOUDY    26  23  88 SE3       29.94F
MARINETTE      CLOUDY    31  28  89 SW3       29.99S
OCONTO         CLOUDY    28  27  94 W3        29.99F
$$

WIZ017-030-035>037-045-180300-
CENTRAL WISCONSIN

CITY           SKY/WX    TMP DP  RH WIND       PRES   REMARKS
MEDFORD        CLOUDY    25  25  97 S6        29.94S FOG
WAUSAU         CLOUDY    27  26  96 S7        29.96R FOG
MOSINEE        FOG       27  27 100 SE3       29.98R VSB 1/4
MARSHFIELD     FOG       28  28 100 CALM      29.95S VSB 1/4
WISC RAPIDS    FOG       28  27  96 CALM      29.99S VSB 1/2
STEVENS POINT  FOG       26  26 100 SE3       29.98S VSB 1/2
WAUPACA        CLOUDY    30  27  87 CALM      30.00S
SHAWANO        FOG       29  28  94 CALM      29.98F VSB 1
CLINTONVILLE   NOT AVBL
WAUTOMA        CLOUDY    29  26  89 SE3       30.00S
$$

WIZ038-039-048-051-180300-
FOX VALLEY

CITY           SKY/WX    TMP DP  RH WIND       PRES   REMARKS
NWS GREEN BAY  CLOUDY    30  28  92 SW5       29.99F FOG
APPLETON       CLOUDY    28  28 100 CALM      29.97F
OSHKOSH        CLOUDY    30  27  88 S6        30.00R FOG
FOND DU LAC    CLOUDY    31  27  85 CALM      30.01R
$$

WIZ022-050-052-180300-
EAST CENTRAL WISCONSIN

CITY           SKY/WX    TMP DP  RH WIND       PRES   REMARKS
EPHRAIM        CLOUDY    29  27  91 CALM      29.96F
WASHINGTON ISL CLOUDY    30  28  90 CALM      29.97F
STURGEON BAY   CLOUDY    30  28  92 SW5       29.99S
MANITOWOC      CLOUDY    31  29  92 W3        30.00F FOG
SHEBOYGAN      CLOUDY    31  31 100 W5        30.00R FOG
$$

LMZ563-521-522-541>543-180300-
LAKESHORE

STATION/POSITION TIME  TEMP    WIND        PRES    VSBY  WAVE
                       AIR SEA DIR/SP/G                  HT/PER
                 (UTC) (F)     (DEG/KT/KT) (MB)    (MI)  (FT/S)
SHEBOYGAN LKSHOR 0200   32     270/  4/  5 1016.6R
KEWAUNEE LKSHORE 0142   30     280/  3/  5 1014.8F
NORTHPORT PIER   0140   31        CALM     1015.2F
MENOMINEE LKSHOR 0142   31     180/  4/  5 1015.0F
$$




USA.gov is the U.S. government's official web portal to all federal, state and local government web resources and services.